Time,TemperatureF,DewpointF,PressureIn,WindDirection,WindDirectionDegrees,WindSpeedMPH,WindSpeedGustMPH,Humidity,HourlyPrecipIn,Conditions,Clouds,dailyrainin,SoftwareType,DateUTC
2013-08-10 00:00:00,79.2,75.6,29.91,West,270,0.0,0.0,89,0.00,RA,,0.00,WeatherDisplay:10.37,2013-08-10 05:00:00,
2013-08-10 00:05:00,79.2,75.6,29.91,West,270,0.0,0.0,89,0.00,RA,,0.00,WeatherDisplay:10.37,2013-08-10 05:05:00,
2013-08-10 00:10:00,79.2,76.0,29.91,West,270,0.0,0.0,90,0.00,CLR,,0.00,WeatherDisplay:10.37,2013-08-10 05:10:00,
2013-08-10 00:15:00,79.0,75.8,29.91,West,270,0.0,0.0,90,0.00,CLR,,0.00,WeatherDisplay:10.37,2013-08-10 05:15:00,
2013-08-10 00:20:00,79.0,75.8,29.91,West,270,0.0,0.0,90,0.00,CLR,,0.00,WeatherDisplay:10.37,2013-08-10 05:20:00,
2013-08-10 00:25:00,78.8,75.9,29.91,West,270,0.0,0.0,91,0.00,CLR,,0.00,WeatherDisplay:10.37,2013-08-10 05:25:00,
2013-08-10 00:29:00,64.9,61.3,30.08,SE,135,1.6,1.6,88,0.00,,,0.00,Cumulus v1.9.2,2013-08-10 05:29:00,
2013-08-10 00:30:00,78.8,76.3,29.91,West,270,0.0,0.0,92,0.00,CLR,,0.00,WeatherDisplay:10.37,2013-08-10 05:30:00,
2013-08-10 00:35:00,78.8,76.3,29.91,West,270,0.0,0.0,92,0.00,CLR,,0.00,WeatherDisplay:10.37,2013-08-10 05:35:00,
2013-08-10 00:40:00,78.8,76.3,29.91,West,270,0.0,0.0,92,0.00,CLR,,0.00,WeatherDisplay:10.37,2013-08-10 05:40:00,
2013-08-10 00:45:00,78.6,76.1,29.91,West,270,0.0,0.0,92,0.00,CLR,,0.00,WeatherDisplay:10.37,2013-08-10 05:45:00,
2013-08-10 00:50:00,78.6,76.1,29.91,West,270,0.0,0.0,92,0.00,CLR,,0.00,WeatherDisplay:10.37,2013-08-10 05:50:00,
2013-08-10 00:55:00,78.6,76.4,29.91,West,270,0.0,0.0,93,0.00,CLR,,0.00,WeatherDisplay:10.37,2013-08-10 05:55:00,
2013-08-10 00:59:00,64.6,61.3,30.08,SE,135,0.7,0.7,89,0.00,,,0.00,Cumulus v1.9.2,2013-08-10 05:59:00,
2013-08-10 01:00:00,78.4,76.2,29.91,West,270,0.0,0.0,93,0.00,CLR,,0.00,WeatherDisplay:10.37,2013-08-10 06:00:00,
2013-08-10 01:05:00,78.4,76.2,29.91,West,270,0.0,0.0,93,0.00,CLR,,0.00,WeatherDisplay:10.37,2013-08-10 06:05:00,
2013-08-10 01:10:00,78.4,76.9,29.91,West,270,0.0,0.0,95,0.00,CLR,,0.00,WeatherDisplay:10.37,2013-08-10 06:10:00,
2013-08-10 01:15:00,78.4,76.9,29.90,West,270,0.0,0.0,95,0.00,CLR,,0.00,WeatherDisplay:10.37,2013-08-10 06:15:00,
2013-08-10 01:20:00,78.4,76.9,29.91,West,270,1.1,0.0,95,0.00,CLR,,0.00,WeatherDisplay:10.37,2013-08-10 06:20:00,
2013-08-10 01:25:00,78.4,77.2,29.90,West,270,0.0,0.0,96,0.00,CLR,,0.00,WeatherDisplay:10.37,2013-08-10 06:25:00,
2013-08-10 01:29:00,64.2,61.2,30.08,SE,135,0.7,0.7,90,0.00,,,0.00,Cumulus v1.9.2,2013-08-10 06:29:00,
2013-08-10 01:30:00,78.3,77.3,29.90,West,270,0.0,0.0,97,0.00,CLR,,0.00,WeatherDisplay:10.37,2013-08-10 06:30:00,
2013-08-10 01:35:00,78.3,77.3,29.90,West,270,0.0,0.0,97,0.00,CLR,,0.00,WeatherDisplay:10.37,2013-08-10 06:35:00,
2013-08-10 01:40:00,78.3,77.3,29.90,West,270,0.0,0.0,97,0.00,CLR,,0.00,WeatherDisplay:10.37,2013-08-10 06:40:00,
2013-08-10 01:45:00,78.3,77.3,29.90,West,270,1.1,0.0,97,0.00,CLR,,0.00,WeatherDisplay:10.37,2013-08-10 06:45:00,
2013-08-10 01:50:00,78.3,77.3,29.90,West,270,0.0,0.0,97,0.00,CLR,,0.00,WeatherDisplay:10.37,2013-08-10 06:50:00,
2013-08-10 01:55:00,78.3,77.3,29.90,West,270,1.1,0.0,97,0.00,CLR,,0.00,WeatherDisplay:10.37,2013-08-10 06:55:00,
2013-08-10 01:59:00,63.9,61.2,30.09,South,180,0.7,0.7,91,0.00,,,0.00,Cumulus v1.9.2,2013-08-10 06:59:00,
2013-08-10 02:00:00,78.1,77.2,29.90,West,270,0.0,0.0,97,0.00,CLR,,0.00,WeatherDisplay:10.37,2013-08-10 07:00:00,
2013-08-10 02:05:00,78.1,77.2,29.90,West,270,0.0,0.0,97,0.00,CLR,,0.00,WeatherDisplay:10.37,2013-08-10 07:05:00,
2013-08-10 02:10:00,78.1,77.2,29.90,West,270,0.0,0.0,97,0.00,CLR,,0.00,WeatherDisplay:10.37,2013-08-10 07:10:00,
2013-08-10 02:15:00,78.1,77.5,29.90,West,270,1.1,0.0,98,0.00,CLR,,0.00,WeatherDisplay:10.37,2013-08-10 07:15:00,
2013-08-10 02:20:00,78.1,77.5,29.90,West,270,1.1,0.0,98,0.00,CLR,,0.00,WeatherDisplay:10.37,2013-08-10 07:20:00,
2013-08-10 02:25:00,78.1,77.5,29.89,West,270,0.0,0.0,98,0.00,CLR,,0.00,WeatherDisplay:10.37,2013-08-10 07:25:00,
2013-08-10 02:29:00,63.7,61.3,30.10,SE,135,0.0,0.0,92,0.00,,,0.00,Cumulus v1.9.2,2013-08-10 07:29:00,
2013-08-10 02:30:00,77.7,77.1,29.90,West,270,0.0,0.0,98,0.00,CLR,,0.00,WeatherDisplay:10.37,2013-08-10 07:30:00,
2013-08-10 02:35:00,77.7,77.1,29.89,East,90,1.1,0.0,98,0.00,CLR,,0.00,WeatherDisplay:10.37,2013-08-10 07:35:00,
2013-08-10 02:40:00,77.7,77.4,29.89,East,90,0.0,0.0,99,0.00,CLR,,0.00,WeatherDisplay:10.37,2013-08-10 07:40:00,
2013-08-10 02:45:00,77.7,77.4,29.90,SW,225,0.7,0.0,99,0.00,CLR,,0.00,WeatherDisplay:10.37,2013-08-10 07:45:00,
2013-08-10 02:50:00,77.7,77.4,29.89,NW,315,1.1,0.0,99,0.00,CLR,,0.00,WeatherDisplay:10.37,2013-08-10 07:50:00,
2013-08-10 02:55:00,77.7,77.4,29.89,NW,315,0.0,0.0,99,0.00,CLR,,0.00,WeatherDisplay:10.37,2013-08-10 07:55:00,
2013-08-10 02:59:00,63.5,61.1,30.10,South,180,0.0,0.0,92,0.00,,,0.00,Cumulus v1.9.2,2013-08-10 07:59:00,
2013-08-10 03:00:00,77.7,77.4,29.89,NW,315,0.0,0.0,99,0.00,CLR,,0.00,WeatherDisplay:10.37,2013-08-10 08:00:00,
2013-08-10 03:05:00,77.7,77.4,29.90,NW,315,0.0,0.0,99,0.00,CLR,,0.00,WeatherDisplay:10.37,2013-08-10 08:05:00,
2013-08-10 03:10:00,77.7,77.4,29.90,NW,315,0.0,0.0,99,0.00,CLR,,0.00,WeatherDisplay:10.37,2013-08-10 08:10:00,
2013-08-10 03:15:00,77.5,77.2,29.90,NW,315,0.0,0.0,99,0.00,CLR,,0.00,WeatherDisplay:10.37,2013-08-10 08:15:00,
2013-08-10 03:20:00,77.5,77.2,29.90,NW,315,0.0,0.0,99,0.00,CLR,,0.00,WeatherDisplay:10.37,2013-08-10 08:20:00,
2013-08-10 03:25:00,77.5,77.2,29.89,NW,315,0.0,0.0,99,0.00,CLR,,0.00,WeatherDisplay:10.37,2013-08-10 08:25:00,
2013-08-10 03:29:00,63.9,61.8,30.11,SE,135,0.7,0.7,93,0.00,,,0.00,Cumulus v1.9.2,2013-08-10 08:29:00,
2013-08-10 03:30:00,77.5,77.2,29.89,NW,315,0.0,0.0,99,0.00,CLR,,0.00,WeatherDisplay:10.37,2013-08-10 08:30:00,
2013-08-10 03:35:00,77.4,77.1,29.89,NW,315,0.0,0.0,99,0.00,CLR,,0.00,WeatherDisplay:10.37,2013-08-10 08:35:00,
2013-08-10 03:40:00,77.4,77.1,29.89,NW,315,0.0,0.0,99,0.00,CLR,,0.00,WeatherDisplay:10.37,2013-08-10 08:40:00,
2013-08-10 03:45:00,77.4,77.1,29.89,NW,315,1.1,0.0,99,0.00,CLR,,0.00,WeatherDisplay:10.37,2013-08-10 08:45:00,
2013-08-10 03:50:00,77.4,77.1,29.90,NW,315,0.0,0.0,99,0.00,CLR,,0.00,WeatherDisplay:10.37,2013-08-10 08:50:00,
2013-08-10 03:55:00,77.4,77.1,29.90,NW,315,0.0,0.0,99,0.00,CLR,,0.00,WeatherDisplay:10.37,2013-08-10 08:55:00,
2013-08-10 03:59:00,64.6,62.2,30.11,South,180,1.6,1.6,92,0.00,,,0.00,Cumulus v1.9.2,2013-08-10 08:59:00,
2013-08-10 04:00:00,77.4,77.1,29.89,NW,315,0.0,0.0,99,0.00,CLR,,0.00,WeatherDisplay:10.37,2013-08-10 09:00:00,
2013-08-10 04:05:00,77.4,77.1,29.90,NW,315,0.0,0.0,99,0.00,CLR,,0.00,WeatherDisplay:10.37,2013-08-10 09:05:00,
2013-08-10 04:10:00,77.2,76.9,29.90,NW,315,0.0,0.0,99,0.00,CLR,,0.00,WeatherDisplay:10.37,2013-08-10 09:10:00,
2013-08-10 04:15:00,77.0,76.7,29.90,NW,315,0.0,0.0,99,0.00,CLR,,0.00,WeatherDisplay:10.37,2013-08-10 09:15:00,
2013-08-10 04:20:00,77.0,76.7,29.90,NW,315,0.0,0.0,99,0.00,CLR,,0.00,WeatherDisplay:10.37,2013-08-10 09:20:00,
2013-08-10 04:25:00,76.8,76.5,29.90,NW,315,0.0,0.0,99,0.00,CLR,,0.00,WeatherDisplay:10.37,2013-08-10 09:25:00,
2013-08-10 04:29:00,65.3,62.6,30.11,NE,45,2.2,2.2,91,0.00,,,0.00,Cumulus v1.9.2,2013-08-10 09:29:00,
2013-08-10 04:30:00,76.8,76.5,29.90,East,90,1.1,0.0,99,0.00,CLR,,0.00,WeatherDisplay:10.37,2013-08-10 09:30:00,
2013-08-10 04:35:00,76.8,76.5,29.90,East,90,0.0,0.0,99,0.00,CLR,,0.00,WeatherDisplay:10.37,2013-08-10 09:35:00,
2013-08-10 04:40:00,76.8,76.5,29.90,East,90,0.0,0.0,99,0.00,CLR,,0.00,WeatherDisplay:10.37,2013-08-10 09:40:00,
2013-08-10 04:45:00,76.6,76.3,29.90,East,90,0.0,0.0,99,0.00,CLR,,0.00,WeatherDisplay:10.37,2013-08-10 09:45:00,
2013-08-10 04:50:00,76.6,76.3,29.90,East,90,0.0,0.0,99,0.00,CLR,,0.00,WeatherDisplay:10.37,2013-08-10 09:50:00,
2013-08-10 04:55:00,76.6,76.3,29.90,East,90,0.0,0.0,99,0.00,CLR,,0.00,WeatherDisplay:10.37,2013-08-10 09:55:00,
2013-08-10 04:59:00,66.4,63.0,30.11,SE,135,1.6,1.6,89,0.00,,,0.00,Cumulus v1.9.2,2013-08-10 09:59:00,
2013-08-10 05:00:00,76.6,76.3,29.90,West,270,0.0,0.0,99,0.00,CLR,,0.00,WeatherDisplay:10.37,2013-08-10 10:00:00,
2013-08-10 05:05:00,76.6,76.3,29.90,West,270,0.0,0.0,99,0.00,CLR,,0.00,WeatherDisplay:10.37,2013-08-10 10:05:00,
2013-08-10 05:11:00,76.6,76.3,29.90,West,270,0.0,0.0,99,0.00,CLR,,0.00,WeatherDisplay:10.37,2013-08-10 10:11:00,
2013-08-10 05:16:00,76.6,76.3,29.90,West,270,0.0,0.0,99,0.00,CLR,,0.00,WeatherDisplay:10.37,2013-08-10 10:16:00,
2013-08-10 05:21:00,76.6,76.3,29.90,West,270,0.0,0.0,99,0.00,CLR,,0.00,WeatherDisplay:10.37,2013-08-10 10:21:00,
2013-08-10 05:26:00,76.6,76.3,29.90,West,270,0.0,0.0,99,0.00,CLR,,0.00,WeatherDisplay:10.37,2013-08-10 10:26:00,
2013-08-10 05:29:00,68.0,64.0,30.12,South,180,2.2,2.2,87,0.00,,,0.00,Cumulus v1.9.2,2013-08-10 10:29:00,
2013-08-10 05:31:00,76.6,76.3,29.90,West,270,0.0,0.0,99,0.00,CLR,,0.00,WeatherDisplay:10.37,2013-08-10 10:31:00,
2013-08-10 05:36:00,76.6,76.3,29.90,West,270,0.0,0.0,99,0.00,CLR,,0.00,WeatherDisplay:10.37,2013-08-10 10:36:00,
2013-08-10 05:41:00,76.6,76.3,29.90,West,270,0.0,0.0,99,0.00,CLR,,0.00,WeatherDisplay:10.37,2013-08-10 10:41:00,
2013-08-10 05:46:00,76.5,76.2,29.91,West,270,0.0,0.0,99,0.00,CLR,,0.00,WeatherDisplay:10.37,2013-08-10 10:46:00,
2013-08-10 05:51:00,76.5,76.2,29.90,West,270,0.0,0.0,99,0.00,CLR,,0.00,WeatherDisplay:10.37,2013-08-10 10:51:00,
2013-08-10 05:56:00,76.5,76.2,29.90,NE,45,0.0,0.0,99,0.00,CLR,,0.00,WeatherDisplay:10.37,2013-08-10 10:56:00,
2013-08-10 05:59:00,69.3,64.2,30.12,SE,135,3.1,3.1,84,0.00,,,0.00,Cumulus v1.9.2,2013-08-10 10:59:00,
2013-08-10 06:01:00,76.5,76.2,29.90,NE,45,0.0,0.0,99,0.00,CLR,,0.00,WeatherDisplay:10.37,2013-08-10 11:01:00,
2013-08-10 06:06:00,76.5,76.2,29.90,NE,45,0.0,0.0,99,0.00,CLR,,0.00,WeatherDisplay:10.37,2013-08-10 11:06:00,
2013-08-10 06:11:00,76.5,76.2,29.90,NE,45,0.0,0.0,99,0.00,CLR,,0.00,WeatherDisplay:10.37,2013-08-10 11:11:00,
2013-08-10 06:16:00,76.5,76.2,29.91,NW,315,1.1,0.0,99,0.00,CLR,,0.00,WeatherDisplay:10.37,2013-08-10 11:16:00,
2013-08-10 06:21:00,76.5,76.2,29.91,NW,315,1.1,0.0,99,0.00,CLR,,0.00,WeatherDisplay:10.37,2013-08-10 11:21:00,
2013-08-10 06:26:00,76.5,76.2,29.91,NW,315,0.0,0.0,99,0.00,CLR,,0.00,WeatherDisplay:10.37,2013-08-10 11:26:00,
2013-08-10 06:29:00,71.1,64.6,30.12,South,180,3.8,3.8,80,0.00,,,0.00,Cumulus v1.9.2,2013-08-10 11:29:00,
2013-08-10 06:31:00,76.5,76.2,29.92,NW,315,0.0,0.0,99,0.00,CLR,,0.00,WeatherDisplay:10.37,2013-08-10 11:31:00,
2013-08-10 06:36:00,76.5,76.2,29.92,NW,315,0.0,0.0,99,0.00,CLR,,0.00,WeatherDisplay:10.37,2013-08-10 11:36:00,
2013-08-10 06:41:00,76.5,76.2,29.92,NW,315,0.0,0.0,99,0.00,CLR,,0.00,WeatherDisplay:10.37,2013-08-10 11:41:00,
2013-08-10 06:46:00,76.5,76.2,29.93,NW,315,0.0,0.0,99,0.00,CLR,,0.00,WeatherDisplay:10.37,2013-08-10 11:46:00,
2013-08-10 06:51:00,76.5,76.2,29.92,NW,315,0.0,0.0,99,0.00,CLR,,0.00,WeatherDisplay:10.37,2013-08-10 11:51:00,
2013-08-10 06:56:00,76.5,76.2,29.92,NW,315,0.0,0.0,99,0.00,CLR,,0.00,WeatherDisplay:10.37,2013-08-10 11:56:00,
2013-08-10 06:59:00,72.3,65.1,30.11,South,180,3.1,3.1,78,0.00,,,0.00,Cumulus v1.9.2,2013-08-10 11:59:00,
2013-08-10 07:01:00,76.5,76.2,29.92,NW,315,0.0,0.0,99,0.00,CLR,,0.00,WeatherDisplay:10.37,2013-08-10 12:01:00,
2013-08-10 07:06:00,76.6,76.3,29.92,NW,315,0.0,0.0,99,0.00,CLR,,0.00,WeatherDisplay:10.37,2013-08-10 12:06:00,
2013-08-10 07:11:00,76.6,76.3,29.92,NW,315,0.0,0.0,99,0.00,CLR,,0.00,WeatherDisplay:10.37,2013-08-10 12:11:00,
2013-08-10 07:16:00,76.6,76.3,29.93,NW,315,0.0,0.0,99,0.00,CLR,,0.00,WeatherDisplay:10.37,2013-08-10 12:16:00,
2013-08-10 07:21:00,76.8,76.5,29.92,NW,315,0.0,0.0,99,0.00,CLR,,0.00,WeatherDisplay:10.37,2013-08-10 12:21:00,
2013-08-10 07:26:00,77.0,76.7,29.92,NW,315,0.0,0.0,99,0.00,CLR,,0.00,WeatherDisplay:10.37,2013-08-10 12:26:00,
2013-08-10 07:29:00,72.9,65.2,30.09,SW,225,2.2,2.2,77,0.00,,,0.00,Cumulus v1.9.2,2013-08-10 12:29:00,
2013-08-10 07:31:00,77.0,76.7,29.93,NW,315,0.0,0.0,99,0.00,CLR,,0.00,WeatherDisplay:10.37,2013-08-10 12:31:00,
2013-08-10 07:36:00,77.0,76.7,29.93,NW,315,0.0,0.0,99,0.00,CLR,,0.00,WeatherDisplay:10.37,2013-08-10 12:36:00,
2013-08-10 07:41:00,77.2,76.9,29.94,South,180,1.1,0.0,99,0.00,CLR,,0.00,WeatherDisplay:10.37,2013-08-10 12:41:00,
2013-08-10 07:46:00,77.4,77.1,29.94,NE,45,1.1,0.0,99,0.00,CLR,,0.00,WeatherDisplay:10.37,2013-08-10 12:46:00,
2013-08-10 07:51:00,77.5,77.2,29.94,West,270,0.0,0.0,99,0.00,CLR,,0.00,WeatherDisplay:10.37,2013-08-10 12:51:00,
2013-08-10 07:56:00,77.7,77.4,29.94,SW,225,0.0,0.0,99,0.00,CLR,,0.00,WeatherDisplay:10.37,2013-08-10 12:56:00,
2013-08-10 07:59:00,73.6,65.5,30.07,West,270,2.2,2.2,76,0.00,,,0.00,Cumulus v1.9.2,2013-08-10 12:59:00,
2013-08-10 08:01:00,77.7,77.4,29.93,SW,225,0.0,0.0,99,0.00,CLR,,0.00,WeatherDisplay:10.37,2013-08-10 13:01:00,
2013-08-10 08:06:00,77.7,77.4,29.94,SW,225,0.0,0.0,99,0.00,CLR,,0.00,WeatherDisplay:10.37,2013-08-10 13:06:00,
2013-08-10 08:08:00,78.1,77.8,29.94,SW,225,0.0,0.0,99,0.00,CLR,,0.00,WeatherDisplay:10.37,2013-08-10 13:08:00,
2013-08-10 08:13:00,78.3,78.0,29.94,NW,315,1.1,0.0,99,0.00,CLR,,0.00,WeatherDisplay:10.37,2013-08-10 13:13:00,
2013-08-10 08:18:00,78.4,78.1,29.94,West,270,1.1,0.0,99,0.00,CLR,,0.00,WeatherDisplay:10.37,2013-08-10 13:18:00,
2013-08-10 08:23:00,78.6,78.3,29.94,WSW,248,1.1,0.0,99,0.00,CLR,,0.00,WeatherDisplay:10.37,2013-08-10 13:23:00,
2013-08-10 08:28:00,78.8,78.5,29.94,West,270,1.1,0.0,99,0.00,CLR,,0.00,WeatherDisplay:10.37,2013-08-10 13:28:00,
2013-08-10 08:29:00,74.8,66.0,30.06,SE,135,3.8,3.8,74,0.00,,,0.00,Cumulus v1.9.2,2013-08-10 13:29:00,
2013-08-10 08:33:00,79.2,78.9,29.95,SE,135,1.1,0.0,99,0.00,CLR,,0.00,WeatherDisplay:10.37,2013-08-10 13:33:00,
2013-08-10 08:38:00,79.3,79.0,29.94,East,90,1.1,0.0,99,0.00,CLR,,0.00,WeatherDisplay:10.37,2013-08-10 13:38:00,
2013-08-10 08:43:00,79.3,79.0,29.95,South,180,2.3,2.3,99,0.00,CLR,,0.00,WeatherDisplay:10.37,2013-08-10 13:43:00,
2013-08-10 08:48:00,79.9,79.6,29.95,NW,315,1.1,0.0,99,0.00,CLR,,0.00,WeatherDisplay:10.37,2013-08-10 13:48:00,
2013-08-10 08:53:00,80.1,79.8,29.95,SE,135,2.3,2.3,99,0.00,CLR,,0.00,WeatherDisplay:10.37,2013-08-10 13:53:00,
2013-08-10 08:58:00,80.4,80.1,29.95,East,90,2.2,2.2,99,0.00,CLR,,0.00,WeatherDisplay:10.37,2013-08-10 13:58:00,
2013-08-10 08:59:00,76.6,66.9,30.03,East,90,1.6,1.6,72,0.00,,,0.00,Cumulus v1.9.2,2013-08-10 13:59:00,
2013-08-10 09:03:00,80.8,80.5,29.96,North,0,1.1,0.0,99,0.00,CLR,,0.00,WeatherDisplay:10.37,2013-08-10 14:03:00,
2013-08-10 09:08:00,81.1,80.8,29.95,East,90,1.1,0.0,99,0.00,CLR,,0.00,WeatherDisplay:10.37,2013-08-10 14:08:00,
2013-08-10 09:13:00,81.5,81.2,29.95,SE,135,4.6,4.6,99,0.00,CLR,,0.00,WeatherDisplay:10.37,2013-08-10 14:13:00,
2013-08-10 09:18:00,82.0,81.7,29.95,SE,135,3.5,3.5,99,0.00,CLR,,0.00,WeatherDisplay:10.37,2013-08-10 14:18:00,
2013-08-10 09:23:00,82.4,80.8,29.96,NE,45,1.1,2.2,95,0.00,CLR,,0.00,WeatherDisplay:10.37,2013-08-10 14:23:00,
2013-08-10 09:28:00,82.8,80.9,29.95,SE,135,4.6,4.6,94,0.00,CLR,,0.00,WeatherDisplay:10.37,2013-08-10 14:28:00,
2013-08-10 09:29:00,76.1,65.6,30.03,East,90,3.1,3.1,70,0.00,,,0.00,Cumulus v1.9.2,2013-08-10 14:29:00,
2013-08-10 09:34:00,83.2,80.7,29.95,ESE,110,0.0,2.0,92,0.00,CLR,,0.00,WeatherDisplay:10.37,2013-08-10 14:34:00,
2013-08-10 09:39:00,83.5,80.6,29.95,ENE,66,0.0,2.0,91,0.00,CLR,,0.00,WeatherDisplay:10.37,2013-08-10 14:39:00,
2013-08-10 09:44:00,83.8,80.6,29.95,NNW,336,0.0,2.0,90,0.00,CLR,,0.00,WeatherDisplay:10.37,2013-08-10 14:44:00,
2013-08-10 09:49:00,84.2,80.6,29.95,West,265,1.0,3.0,89,0.00,CLR,,0.00,WeatherDisplay:10.37,2013-08-10 14:49:00,
2013-08-10 09:54:00,84.6,78.8,29.95,ESE,105,0.0,4.0,83,0.00,CLR,,0.00,WeatherDisplay:10.37,2013-08-10 14:54:00,
2013-08-10 09:59:00,84.9,78.4,29.95,SE,135,3.5,3.5,81,0.00,CLR,,0.00,WeatherDisplay:10.37,2013-08-10 14:59:00,
2013-08-10 10:04:00,85.3,77.6,29.95,North,0,3.5,3.5,78,0.00,CLR,,0.00,WeatherDisplay:10.37,2013-08-10 15:04:00,
2013-08-10 10:09:00,86.0,78.3,29.95,SE,135,3.5,3.5,78,0.00,CLR,,0.00,WeatherDisplay:10.37,2013-08-10 15:09:00,
2013-08-10 10:14:00,87.4,77.7,29.95,NE,45,3.5,3.5,73,0.00,CLR,,0.00,WeatherDisplay:10.37,2013-08-10 15:14:00,
2013-08-10 10:19:00,88.3,78.2,29.95,SSW,202,3.5,3.5,72,0.00,CLR,,0.00,WeatherDisplay:10.37,2013-08-10 15:19:00,
2013-08-10 10:24:00,89.8,78.2,29.95,South,180,3.5,3.5,69,0.00,CLR,,0.00,WeatherDisplay:10.37,2013-08-10 15:24:00,
2013-08-10 10:29:00,90.5,77.6,29.96,NE,45,3.5,3.5,66,0.00,CLR,,0.00,WeatherDisplay:10.37,2013-08-10 15:29:00,
2013-08-10 10:34:00,91.8,78.3,29.96,NW,315,2.3,2.3,65,0.00,CLR,,0.00,WeatherDisplay:10.37,2013-08-10 15:34:00,
2013-08-10 10:39:00,92.8,77.4,29.96,SE,135,5.8,5.8,61,0.00,CLR,,0.00,WeatherDisplay:10.37,2013-08-10 15:39:00,
2013-08-10 10:44:00,92.3,74.3,29.96,NE,45,2.3,2.3,56,0.00,CLR,,0.00,WeatherDisplay:10.37,2013-08-10 15:44:00,
2013-08-10 10:49:00,92.3,76.4,29.96,East,90,1.1,1.1,60,0.00,CLR,,0.00,WeatherDisplay:10.37,2013-08-10 15:49:00,
2013-08-10 10:54:00,91.6,73.7,29.96,SE,135,2.3,0.0,56,0.00,CLR,,0.00,WeatherDisplay:10.37,2013-08-10 15:54:00,
2013-08-10 10:59:00,92.3,76.4,29.96,NE,45,2.3,2.3,60,0.00,CLR,,0.00,WeatherDisplay:10.37,2013-08-10 15:59:00,
2013-08-10 11:04:00,93.4,75.9,29.95,SE,135,1.1,0.0,57,0.00,CLR,,0.00,WeatherDisplay:10.37,2013-08-10 16:04:00,
2013-08-10 11:09:00,94.5,75.2,29.95,NE,45,2.3,2.3,54,0.00,CLR,,0.00,WeatherDisplay:10.37,2013-08-10 16:09:00,
2013-08-10 11:14:00,94.5,72.9,29.95,NW,315,2.3,2.3,50,0.00,CLR,,0.00,WeatherDisplay:10.37,2013-08-10 16:14:00,
2013-08-10 11:19:00,94.8,75.6,29.95,West,270,3.5,0.0,54,0.00,CLR,,0.00,WeatherDisplay:10.37,2013-08-10 16:19:00,
2013-08-10 11:20:00,95.0,75.7,29.95,West,270,1.1,1.1,54,0.00,CLR,,0.00,WeatherDisplay:10.37,2013-08-10 16:20:00,
2013-08-10 11:25:00,95.4,73.8,29.95,NE,45,3.5,3.5,50,0.00,CLR,,0.00,WeatherDisplay:10.37,2013-08-10 16:25:00,
2013-08-10 11:29:00,74.8,65.6,30.01,SE,135,1.6,1.6,73,0.00,,,0.00,Cumulus v1.9.2,2013-08-10 16:29:00,
2013-08-10 11:30:00,95.5,73.9,29.95,SW,225,1.1,0.0,50,0.00,CLR,,0.00,WeatherDisplay:10.37,2013-08-10 16:30:00,
2013-08-10 11:35:00,95.7,72.9,29.95,West,270,2.3,2.3,48,0.00,CLR,,0.00,WeatherDisplay:10.37,2013-08-10 16:35:00,
2013-08-10 11:40:00,95.9,73.1,29.95,SE,135,3.5,3.5,48,0.00,CLR,,0.00,WeatherDisplay:10.37,2013-08-10 16:40:00,
2013-08-10 11:45:00,95.7,74.7,29.95,South,180,2.3,2.3,51,0.00,CLR,,0.00,WeatherDisplay:10.37,2013-08-10 16:45:00,
2013-08-10 11:50:00,96.3,73.4,29.95,SE,135,3.5,0.0,48,0.00,CLR,,0.00,WeatherDisplay:10.37,2013-08-10 16:50:00,
2013-08-10 11:55:00,96.8,74.5,29.95,SW,225,1.1,1.1,49,0.00,CLR,,0.00,WeatherDisplay:10.37,2013-08-10 16:55:00,
2013-08-10 11:59:00,74.3,65.5,30.00,SE,135,3.1,3.1,74,0.00,,,0.00,Cumulus v1.9.2,2013-08-10 16:59:00,
2013-08-10 12:00:00,97.2,72.3,29.95,NE,45,2.3,2.3,45,0.00,CLR,,0.00,WeatherDisplay:10.37,2013-08-10 17:00:00,
2013-08-10 12:05:00,95.9,73.7,29.95,SW,225,1.1,1.1,49,0.00,CLR,,0.00,WeatherDisplay:10.37,2013-08-10 17:05:00,
2013-08-10 12:10:00,95.9,70.5,29.95,North,0,2.3,2.3,44,0.00,CLR,,0.00,WeatherDisplay:10.37,2013-08-10 17:10:00,
2013-08-10 12:15:00,96.6,71.1,29.95,NW,315,1.1,0.0,44,0.00,CLR,,0.00,WeatherDisplay:10.37,2013-08-10 17:15:00,
2013-08-10 12:20:00,97.2,72.3,29.94,NW,315,2.3,2.3,45,0.00,CLR,,0.00,WeatherDisplay:10.37,2013-08-10 17:20:00,
2013-08-10 12:25:00,97.2,72.3,29.94,NW,315,2.3,2.3,45,0.00,CLR,,0.00,WeatherDisplay:10.37,2013-08-10 17:25:00,
2013-08-10 12:29:00,73.8,65.3,30.00,NNE,22,2.2,2.2,75,0.00,,,0.00,Cumulus v1.9.2,2013-08-10 17:29:00,
2013-08-10 12:30:00,98.6,69.4,29.94,West,270,2.3,2.3,39,0.00,CLR,,0.00,WeatherDisplay:10.37,2013-08-10 17:30:00,
2013-08-10 12:35:00,98.4,69.2,29.94,NE,45,3.5,0.0,39,0.00,CLR,,0.00,WeatherDisplay:10.37,2013-08-10 17:35:00,
2013-08-10 12:40:00,97.9,71.6,29.93,East,90,3.5,0.0,43,0.00,CLR,,0.00,WeatherDisplay:10.37,2013-08-10 17:40:00,
2013-08-10 12:45:00,98.4,71.4,29.93,North,0,3.5,3.5,42,0.00,CLR,,0.00,WeatherDisplay:10.37,2013-08-10 17:45:00,
2013-08-10 12:50:00,98.6,68.6,29.93,East,90,1.1,0.0,38,0.00,CLR,,0.00,WeatherDisplay:10.37,2013-08-10 17:50:00,
2013-08-10 12:55:00,97.5,71.3,29.93,West,270,1.1,1.1,43,0.00,CLR,,0.00,WeatherDisplay:10.37,2013-08-10 17:55:00,
2013-08-10 12:59:00,73.0,65.0,30.00,SE,135,3.1,3.1,76,0.00,,,0.00,Cumulus v1.9.2,2013-08-10 17:59:00,
2013-08-10 13:00:00,96.6,74.3,29.93,West,270,3.5,3.5,49,0.00,CLR,,0.00,WeatherDisplay:10.37,2013-08-10 18:00:00,
2013-08-10 13:05:00,96.3,68.0,29.93,NW,315,2.3,0.0,40,0.00,CLR,,0.00,WeatherDisplay:10.37,2013-08-10 18:05:00,
2013-08-10 13:10:00,95.9,69.8,29.92,West,270,1.1,0.0,43,0.00,CLR,,0.00,WeatherDisplay:10.37,2013-08-10 18:10:00,
2013-08-10 13:15:00,95.4,69.3,29.93,SW,225,2.3,0.0,43,0.00,CLR,,0.00,WeatherDisplay:10.37,2013-08-10 18:15:00,
2013-08-10 13:20:00,94.5,70.5,29.92,West,270,2.3,0.0,46,0.00,CLR,,0.00,WeatherDisplay:10.37,2013-08-10 18:20:00,
2013-08-10 13:25:00,94.6,71.3,29.92,West,270,3.8,3.8,47,0.00,CLR,,0.00,WeatherDisplay:10.37,2013-08-10 18:25:00,
2013-08-10 13:29:00,71.8,64.5,30.00,SE,135,1.6,1.6,78,0.00,,,0.00,Cumulus v1.9.2,2013-08-10 18:29:00,
2013-08-10 13:30:00,94.5,73.5,29.92,West,270,3.5,3.5,51,0.00,CLR,,0.00,WeatherDisplay:10.37,2013-08-10 18:30:00,
2013-08-10 13:35:00,94.5,72.3,29.91,West,270,3.5,3.5,49,0.00,CLR,,0.00,WeatherDisplay:10.37,2013-08-10 18:35:00,
2013-08-10 13:40:00,93.9,72.5,29.91,West,270,1.1,0.0,50,0.00,CLR,,0.00,WeatherDisplay:10.37,2013-08-10 18:40:00,
2013-08-10 13:45:00,93.4,73.7,29.91,West,270,0.0,0.0,53,0.00,CLR,,0.00,WeatherDisplay:10.37,2013-08-10 18:45:00,
2013-08-10 13:50:00,92.7,76.2,29.91,South,180,1.1,0.0,59,0.00,CLR,,0.00,WeatherDisplay:10.37,2013-08-10 18:50:00,
2013-08-10 13:55:00,90.7,76.8,29.91,SW,225,1.1,0.0,64,0.00,CLR,,0.00,WeatherDisplay:10.37,2013-08-10 18:55:00,
2013-08-10 13:59:00,69.8,63.7,30.00,SE,135,0.7,0.7,81,0.00,,,0.00,Cumulus v1.9.2,2013-08-10 18:59:00,
2013-08-10 14:00:00,89.8,76.9,29.91,South,180,0.0,0.0,66,0.00,CLR,,0.00,WeatherDisplay:10.37,2013-08-10 19:00:00,
2013-08-10 14:05:00,88.9,77.4,29.90,North,0,3.5,3.5,69,0.01,RA,,0.01,WeatherDisplay:10.37,2013-08-10 19:05:00,
2013-08-10 14:10:00,87.6,77.5,29.90,SE,135,2.3,0.0,72,0.01,RA,,0.02,WeatherDisplay:10.37,2013-08-10 19:10:00,
2013-08-10 14:15:00,86.5,76.9,29.90,SE,135,1.1,0.0,73,0.04,RA,,0.04,WeatherDisplay:10.37,2013-08-10 19:15:00,
2013-08-10 14:20:00,84.6,76.6,29.90,SE,135,1.1,0.0,77,0.06,RA,,0.06,WeatherDisplay:10.37,2013-08-10 19:20:00,
2013-08-10 14:25:00,84.2,77.7,29.90,NE,45,1.1,0.0,81,0.06,RA,,0.06,WeatherDisplay:10.37,2013-08-10 19:25:00,
2013-08-10 14:29:00,68.5,63.8,30.00,SE,135,0.7,0.7,85,0.00,,,0.00,Cumulus v1.9.2,2013-08-10 19:29:00,
2013-08-10 14:30:00,84.0,79.4,29.90,NE,45,3.5,3.5,86,0.06,CLR,,0.06,WeatherDisplay:10.37,2013-08-10 19:30:00,
2013-08-10 14:35:00,83.7,79.7,29.91,NE,45,3.5,0.0,88,0.12,RA,,0.12,WeatherDisplay:10.37,2013-08-10 19:35:00,
2013-08-10 14:40:00,82.9,79.0,29.91,East,90,1.1,1.1,88,0.15,RA,,0.17,WeatherDisplay:10.37,2013-08-10 19:40:00,
2013-08-10 14:45:00,82.0,78.5,29.92,NW,315,1.1,1.6,89,0.20,RA,,0.21,WeatherDisplay:10.37,2013-08-10 19:45:00,
2013-08-10 14:50:00,81.3,78.4,29.92,West,270,3.5,3.5,91,0.32,RA,,0.32,WeatherDisplay:10.37,2013-08-10 19:50:00,
2013-08-10 14:55:00,79.9,77.3,29.92,SW,225,3.5,0.0,92,0.44,RA,,0.44,WeatherDisplay:10.37,2013-08-10 19:55:00,
2013-08-10 14:59:00,68.4,64.3,29.99,SE,135,0.7,0.7,87,0.00,,,0.00,Cumulus v1.9.2,2013-08-10 19:59:00,
2013-08-10 15:00:00,78.3,76.4,29.92,East,90,4.6,4.6,94,0.50,RA,,0.50,WeatherDisplay:10.37,2013-08-10 20:00:00,
2013-08-10 15:05:00,77.7,77.4,29.93,NE,45,4.6,4.6,99,0.54,RA,,0.58,WeatherDisplay:10.37,2013-08-10 20:05:00,
2013-08-10 15:10:00,77.4,77.1,29.93,East,90,3.5,3.5,99,0.67,RA,,0.71,WeatherDisplay:10.37,2013-08-10 20:10:00,
2013-08-10 15:15:00,77.0,76.7,29.94,ESE,112,2.3,0.0,99,0.76,RA,,0.79,WeatherDisplay:10.37,2013-08-10 20:15:00,
2013-08-10 15:20:00,77.2,76.9,29.95,NE,45,1.1,1.1,99,0.79,RA,,0.85,WeatherDisplay:10.37,2013-08-10 20:20:00,
2013-08-10 15:29:00,76.6,76.3,29.94,ENE,63,1.0,5.0,99,0.06,RA,,1.11,WeatherDisplay:10.37,2013-08-10 20:29:00,
2013-08-10 15:45:00,76.8,76.5,29.92,North,0,1.1,0.0,99,1.20,RA,,1.41,WeatherDisplay:10.37,2013-08-10 20:45:00,
2013-08-10 15:59:00,77.3,77.0,29.91,WNW,285,0.0,1.0,99,0.00,RA,,1.43,WeatherDisplay:10.37,2013-08-10 20:59:00,
2013-08-10 16:04:00,77.4,77.1,29.91,South,180,1.1,0.0,99,0.92,CLR,,1.43,WeatherDisplay:10.37,2013-08-10 21:04:00,
2013-08-10 16:10:00,77.4,77.1,29.90,NE,45,1.1,0.0,99,0.74,CLR,,1.43,WeatherDisplay:10.37,2013-08-10 21:10:00,
2013-08-10 16:17:00,77.4,77.1,29.90,SE,135,1.1,0.0,99,0.64,CLR,,1.43,WeatherDisplay:10.37,2013-08-10 21:17:00,
2013-08-10 16:22:00,77.4,77.1,29.90,SW,225,1.1,0.0,99,0.56,CLR,,1.43,WeatherDisplay:10.37,2013-08-10 21:22:00,
2013-08-10 16:27:00,77.7,77.4,29.89,West,270,1.1,0.0,99,0.40,CLR,,1.43,WeatherDisplay:10.37,2013-08-10 21:27:00,
2013-08-10 16:29:00,67.5,64.4,29.99,ENE,68,2.2,2.2,90,0.00,,,0.00,Cumulus v1.9.2,2013-08-10 21:29:00,
2013-08-10 16:33:00,78.1,77.8,29.90,NW,315,0.0,0.0,99,0.28,CLR,,1.43,WeatherDisplay:10.37,2013-08-10 21:33:00,
2013-08-10 16:38:00,78.3,78.0,29.90,SW,225,0.0,0.0,99,0.11,CLR,,1.43,WeatherDisplay:10.37,2013-08-10 21:38:00,
2013-08-10 16:44:00,78.4,78.1,29.90,North,0,1.1,0.0,99,0.02,CLR,,1.43,WeatherDisplay:10.37,2013-08-10 21:44:00,
2013-08-10 16:49:00,78.6,78.3,29.89,SW,225,1.1,0.0,99,0.01,CLR,,1.43,WeatherDisplay:10.37,2013-08-10 21:49:00,
2013-08-10 16:54:00,78.4,78.1,29.90,West,270,0.0,0.0,99,0.00,CLR,,1.43,WeatherDisplay:10.37,2013-08-10 21:54:00,
2013-08-10 16:59:00,66.9,64.5,29.99,SE,135,1.6,1.6,92,0.00,,,0.00,Cumulus v1.9.2,2013-08-10 21:59:00,
2013-08-10 17:00:00,78.8,78.5,29.91,NE,45,0.0,0.0,99,0.00,CLR,,1.43,WeatherDisplay:10.37,2013-08-10 22:00:00,
2013-08-10 17:09:00,79.2,78.9,29.91,NE,45,1.1,0.0,99,0.00,CLR,,1.43,WeatherDisplay:10.37,2013-08-10 22:09:00,
2013-08-10 17:22:00,79.9,79.6,29.91,West,270,0.0,0.0,99,0.00,CLR,,1.43,WeatherDisplay:10.37,2013-08-10 22:22:00,
2013-08-10 17:27:00,79.9,79.6,29.92,West,270,0.0,0.0,99,0.00,CLR,,1.43,WeatherDisplay:10.37,2013-08-10 22:27:00,
2013-08-10 17:29:00,66.4,64.0,29.99,SE,135,1.6,1.6,92,0.00,,,0.00,Cumulus v1.9.2,2013-08-10 22:29:00,
2013-08-10 17:39:00,79.9,79.6,29.91,West,270,1.1,0.0,99,0.00,CLR,,1.43,WeatherDisplay:10.37,2013-08-10 22:39:00,
2013-08-10 17:57:00,79.3,79.0,29.91,West,270,0.0,0.0,99,0.00,CLR,,1.43,WeatherDisplay:10.37,2013-08-10 22:57:00,
2013-08-10 17:59:00,66.0,64.2,29.99,SE,135,1.6,1.6,94,0.00,,,0.00,Cumulus v1.9.2,2013-08-10 22:59:00,
2013-08-10 18:02:00,79.3,79.0,29.90,West,270,0.0,0.0,99,0.00,CLR,,1.43,WeatherDisplay:10.37,2013-08-10 23:02:00,
2013-08-10 18:09:00,79.3,79.0,29.90,NE,45,0.0,0.0,99,0.00,CLR,,1.43,WeatherDisplay:10.37,2013-08-10 23:09:00,
2013-08-10 18:23:00,79.2,78.9,29.90,NE,45,0.0,0.0,99,0.00,CLR,,1.43,WeatherDisplay:10.37,2013-08-10 23:23:00,
2013-08-10 18:28:00,79.2,78.9,29.89,NE,45,0.0,0.0,99,0.00,CLR,,1.43,WeatherDisplay:10.37,2013-08-10 23:28:00,
2013-08-10 18:29:00,66.7,65.0,29.99,SE,135,2.2,2.2,94,0.00,,,0.00,Cumulus v1.9.2,2013-08-10 23:29:00,
2013-08-10 18:34:00,79.2,78.9,29.89,NE,45,0.0,0.0,99,0.00,CLR,,1.43,WeatherDisplay:10.37,2013-08-10 23:34:00,
2013-08-10 18:39:00,79.2,78.9,29.88,NE,45,0.0,0.0,99,0.00,CLR,,1.43,WeatherDisplay:10.37,2013-08-10 23:39:00,
2013-08-10 18:44:00,79.2,78.9,29.88,NE,45,0.0,0.0,99,0.00,CLR,,1.43,WeatherDisplay:10.37,2013-08-10 23:44:00,
2013-08-10 18:49:00,79.2,78.9,29.88,NE,45,0.0,0.0,99,0.00,CLR,,1.43,WeatherDisplay:10.37,2013-08-10 23:49:00,
2013-08-10 18:54:00,79.2,78.9,29.88,NE,45,0.0,0.0,99,0.00,CLR,,1.43,WeatherDisplay:10.37,2013-08-10 23:54:00,
2013-08-10 18:59:00,67.5,66.0,29.99,SE,135,3.1,3.1,95,0.00,,,0.00,Cumulus v1.9.2,2013-08-10 23:59:00,
2013-08-10 19:00:00,79.2,78.9,29.88,NE,45,0.0,0.0,99,0.00,CLR,,1.43,WeatherDisplay:10.37,2013-08-11 00:00:00,
2013-08-10 19:05:00,79.0,78.7,29.88,NE,45,0.0,0.0,99,0.00,CLR,,1.43,WeatherDisplay:10.37,2013-08-11 00:05:00,
2013-08-10 19:20:00,79.0,78.7,29.88,NE,45,0.0,0.0,99,0.00,CLR,,1.43,WeatherDisplay:10.37,2013-08-11 00:20:00,
2013-08-10 19:28:00,78.8,78.5,29.89,NE,45,0.0,0.0,99,0.00,CLR,,1.43,WeatherDisplay:10.37,2013-08-11 00:28:00,
2013-08-10 19:29:00,67.5,65.7,29.99,SE,135,1.6,1.6,94,0.00,,,0.00,Cumulus v1.9.2,2013-08-11 00:29:00,
2013-08-10 19:33:00,78.8,78.5,29.89,NE,45,0.0,0.0,99,0.00,CLR,,1.43,WeatherDisplay:10.37,2013-08-11 00:33:00,
2013-08-10 19:44:00,78.8,78.5,29.90,NW,314,0.0,0.0,99,0.00,CLR,,1.43,WeatherDisplay:10.37,2013-08-11 00:44:00,
2013-08-10 19:50:00,78.6,78.3,29.90,West,270,0.0,0.0,99,0.00,CLR,,1.43,WeatherDisplay:10.37,2013-08-11 00:50:00,
2013-08-10 19:59:00,66.7,65.0,29.99,SE,135,1.6,1.6,94,0.00,,,0.00,Cumulus v1.9.2,2013-08-11 00:59:00,
2013-08-10 20:02:00,78.4,78.1,29.92,West,270,0.0,0.0,99,0.00,CLR,,1.43,WeatherDisplay:10.37,2013-08-11 01:02:00,
2013-08-10 20:08:00,78.3,78.0,29.92,East,90,0.0,0.0,99,0.00,CLR,,1.43,WeatherDisplay:10.37,2013-08-11 01:08:00,
2013-08-10 20:13:00,78.3,78.0,29.92,East,90,0.0,0.0,99,0.00,CLR,,1.43,WeatherDisplay:10.37,2013-08-11 01:13:00,
2013-08-10 20:19:00,78.3,78.0,29.93,East,90,0.0,0.0,99,0.00,CLR,,1.43,WeatherDisplay:10.37,2013-08-11 01:19:00,
2013-08-10 20:24:00,78.3,78.0,29.92,East,90,0.0,0.0,99,0.00,CLR,,1.43,WeatherDisplay:10.37,2013-08-11 01:24:00,
2013-08-10 20:29:00,78.3,78.0,29.92,East,90,0.0,0.0,99,0.00,CLR,,1.43,WeatherDisplay:10.37,2013-08-11 01:29:00,
2013-08-10 20:35:00,78.3,78.0,29.92,NW,315,0.0,0.0,99,0.00,CLR,,1.43,WeatherDisplay:10.37,2013-08-11 01:35:00,
2013-08-10 20:38:00,78.3,78.0,29.92,NW,315,0.0,0.0,99,0.00,CLR,,1.43,WeatherDisplay:10.37,2013-08-11 01:38:00,
2013-08-10 20:44:00,78.1,77.8,29.92,NW,315,0.0,0.0,99,0.00,CLR,,1.43,WeatherDisplay:10.37,2013-08-11 01:44:00,
2013-08-10 20:50:00,78.1,77.8,29.93,NW,315,0.0,0.0,99,0.00,CLR,,1.43,WeatherDisplay:10.37,2013-08-11 01:50:00,
2013-08-10 20:59:00,66.9,65.7,29.96,SE,135,2.2,2.2,96,0.00,,,0.00,Cumulus v1.9.2,2013-08-11 01:59:00,
2013-08-10 21:05:00,77.7,77.4,29.92,SE,135,0.0,0.0,99,0.00,CLR,,1.43,WeatherDisplay:10.37,2013-08-11 02:05:00,
2013-08-10 21:10:00,78.1,77.8,29.94,NE,45,3.5,3.5,99,0.00,CLR,,1.43,WeatherDisplay:10.37,2013-08-11 02:10:00,
2013-08-10 21:15:00,78.3,78.0,29.93,West,270,1.1,1.1,99,0.00,CLR,,1.43,WeatherDisplay:10.37,2013-08-11 02:15:00,
2013-08-10 21:25:00,78.1,77.8,29.94,NE,45,1.1,0.0,99,0.00,CLR,,1.43,WeatherDisplay:10.37,2013-08-11 02:25:00,
2013-08-10 21:29:00,66.9,65.7,29.95,West,270,0.7,0.7,96,0.00,,,0.00,Cumulus v1.9.2,2013-08-11 02:29:00,
2013-08-10 21:30:00,78.1,77.8,29.93,SW,225,1.1,0.0,99,0.00,CLR,,1.43,WeatherDisplay:10.37,2013-08-11 02:30:00,
2013-08-10 21:35:00,78.1,77.8,29.95,SE,135,0.0,0.0,99,0.00,CLR,,1.43,WeatherDisplay:10.37,2013-08-11 02:35:00,
2013-08-10 21:41:00,78.1,77.8,29.95,NE,45,0.0,0.0,99,0.00,CLR,,1.43,WeatherDisplay:10.37,2013-08-11 02:41:00,
2013-08-10 21:46:00,78.1,77.8,29.94,NE,45,0.0,0.0,99,0.00,CLR,,1.43,WeatherDisplay:10.37,2013-08-11 02:46:00,
2013-08-10 21:56:00,78.1,77.8,29.95,NE,45,0.0,0.0,99,0.00,CLR,,1.43,WeatherDisplay:10.37,2013-08-11 02:56:00,
2013-08-10 21:59:00,67.3,66.1,29.94,NE,45,3.1,3.1,96,0.00,,,0.00,Cumulus v1.9.2,2013-08-11 02:59:00,
2013-08-10 22:06:00,78.1,77.8,29.95,South,180,0.0,0.0,99,0.00,CLR,,1.43,WeatherDisplay:10.37,2013-08-11 03:06:00,
2013-08-10 22:14:00,77.7,77.4,29.94,SW,225,1.1,0.0,99,0.00,CLR,,1.43,WeatherDisplay:10.37,2013-08-11 03:14:00,
2013-08-10 22:29:00,66.9,65.4,29.94,SE,135,2.2,2.2,95,0.00,,,0.00,Cumulus v1.9.2,2013-08-11 03:29:00,
2013-08-10 22:42:00,77.4,77.1,29.94,SW,225,0.0,0.0,99,0.00,CLR,,1.43,WeatherDisplay:10.37,2013-08-11 03:42:00,
2013-08-10 22:47:00,77.4,77.1,29.94,SE,135,0.0,0.0,99,0.00,CLR,,1.43,WeatherDisplay:10.37,2013-08-11 03:47:00,
2013-08-10 22:52:00,77.5,77.2,29.94,West,270,0.0,0.0,99,0.00,CLR,,1.43,WeatherDisplay:10.37,2013-08-11 03:52:00,
2013-08-10 22:57:00,77.5,77.2,29.94,West,270,0.0,0.0,99,0.00,CLR,,1.43,WeatherDisplay:10.37,2013-08-11 03:57:00,
2013-08-10 22:59:00,67.1,65.9,29.93,SE,135,1.6,1.6,96,0.00,,,0.00,Cumulus v1.9.2,2013-08-11 03:59:00,
2013-08-10 23:01:00,77.5,77.2,29.94,NW,315,1.1,0.0,99,0.00,CLR,,1.43,WeatherDisplay:10.37,2013-08-11 04:01:00,
2013-08-10 23:02:00,77.5,77.2,29.94,NW,315,1.1,0.0,99,0.00,CLR,,1.43,WeatherDisplay:10.37,2013-08-11 04:02:00,
2013-08-10 23:04:00,77.5,77.2,29.95,NW,315,1.1,0.0,99,0.00,CLR,,1.43,WeatherDisplay:10.37,2013-08-11 04:04:00,
2013-08-10 23:09:00,77.4,77.1,29.95,NW,315,0.0,0.0,99,0.00,CLR,,1.43,WeatherDisplay:10.37,2013-08-11 04:09:00,
2013-08-10 23:14:00,77.4,77.1,29.95,NW,315,0.0,0.0,99,0.00,CLR,,1.43,WeatherDisplay:10.37,2013-08-11 04:14:00,
2013-08-10 23:19:00,77.4,77.1,29.95,NW,315,0.0,0.0,99,0.00,CLR,,1.43,WeatherDisplay:10.37,2013-08-11 04:19:00,
2013-08-10 23:24:00,77.2,76.9,29.95,East,90,0.0,0.0,99,0.00,CLR,,1.43,WeatherDisplay:10.37,2013-08-11 04:24:00,
2013-08-10 23:29:00,77.0,76.7,29.95,East,90,0.0,0.0,99,0.00,CLR,,1.43,WeatherDisplay:10.37,2013-08-11 04:29:00,
2013-08-10 23:34:00,77.2,76.9,29.95,East,90,0.0,0.0,99,0.00,CLR,,1.43,WeatherDisplay:10.37,2013-08-11 04:34:00,
2013-08-10 23:39:00,77.2,76.9,29.95,East,90,0.0,0.0,99,0.00,CLR,,1.43,WeatherDisplay:10.37,2013-08-11 04:39:00,
2013-08-10 23:44:00,77.0,76.7,29.95,West,270,1.1,0.0,99,0.00,CLR,,1.43,WeatherDisplay:10.37,2013-08-11 04:44:00,
2013-08-10 23:49:00,77.2,76.9,29.95,West,270,0.0,0.0,99,0.00,CLR,,1.43,WeatherDisplay:10.37,2013-08-11 04:49:00,
2013-08-10 23:54:00,77.2,76.9,29.95,West,270,0.0,0.0,99,0.00,CLR,,1.43,WeatherDisplay:10.37,2013-08-11 04:54:00,
2013-08-10 23:59:00,77.0,76.7,29.95,West,270,0.0,0.0,99,0.00,RA,,0.00,WeatherDisplay:10.37,2013-08-11 04:59:00,